Weather observations for the past three days for
Reno, Reno Tahoe International Airport
Imperial (Metric)
Date Time (pdt) Wind (mph) Vis. (mi.) Weather Sky Cond. Temperature (ºF) Relative Humidity Wind Chill (°F) Heat Index (°F) Pressure Precipitation (in)
Air Dwpt 6 hour altimeter (in) sea level (mb) 1 hr 3 hr 6 hr
Max. Min.
24 19:55 W 15 G 26 10.00 Partly Cloudy FEW100 SCT250 86 48.9 28% 83 30.03 1010.8
24 18:55 W 13 G 25 10.00 A Few Clouds FEW100 FEW250 89.1 51.1 27% 86 30.03 1010.7
24 17:55 W 20 G 36 10.00 A Few Clouds FEW100 91 52 26% 88 30.01 1010.1
24 16:55 W 21 G 36 10.00 A Few Clouds and Breezy FEW100 93 54 96.1 87.1 27% 91 30.01 1009.8
24 15:55 W 16 G 30 10.00 A Few Clouds FEW100 95 55.9 27% 93 30.01 1009.7
24 14:55 W 18 G 26 10.00 A Few Clouds FEW100 95 55.9 27% 93 30.02 1009.9
24 13:55 SW 8 G 22 10.00 A Few Clouds FEW095 93.9 55 27% 92 30.03 1010.3
24 12:55 S 20 G 26 10.00 A Few Clouds FEW095 91.9 54 28% 90 30.04 1010.7
24 11:55 W 9 10.00 A Few Clouds FEW100 89.1 51.1 27% 86 30.07 1011.5
24 10:55 Calm 10.00 A Few Clouds FEW090 87.1 50 87.1 64.9 28% 84 30.08 1011.9
24 09:55 Calm 10.00 A Few Clouds FEW090 82.9 46 27% 81 30.1 1012.6
24 08:55 Calm 10.00 A Few Clouds FEW080 75.9 43 31% 77 30.11 1013.4
24 07:55 Calm 10.00 A Few Clouds FEW080 72 44.1 37% 30.12 1013.7
24 06:55 Calm 10.00 A Few Clouds FEW080 66.9 43 42% 30.11 1013.7
24 05:55 SW 5 10.00 Fair CLR 64.9 41 42% 30.11 1013.5
24 04:55 Calm 10.00 Fair CLR 64.9 44.1 78.1 64 47% 30.1 1013.3
24 03:55 S 5 10.00 Fair CLR 66 44.1 45% 30.1 1012.7
24 02:55 W 5 10.00 Fair CLR 70 43 38% 30.09 1012.2
24 01:55 NE 3 10.00 Fair CLR 71.1 44.1 38% 30.08 1012.0
24 00:55 Calm 10.00 Fair CLR 73 44.1 35% 30.08 1011.8
23 23:55 NW 6 10.00 Fair CLR 77 43 30% 78 30.08 1011.7
23 22:55 NW 6 G 20 10.00 Fair CLR 78.1 45 93.9 78.1 31% 78 30.07 1011.7
23 21:55 W 15 10.00 Fair CLR 80.1 45 29% 79 30.06 1011.4
23 20:55 W 13 G 22 10.00 Fair CLR 82.9 45 26% 81 30.03 1010.5
23 19:55 W 15 10.00 Fair CLR 86 48 27% 83 30.02 1009.9
23 18:55 W 22 G 28 10.00 Fair and Breezy CLR 89.1 50 26% 86 30 1009.7
23 17:55 W 17 G 28 10.00 Fair CLR 91.9 52 26% 89 29.99 1009.5
23 16:55 W 20 G 33 10.00 Fair CLR 93 54 97 87.1 27% 91 30 1009.5
23 15:55 W 17 G 29 10.00 Fair CLR 95 55 26% 93 30.01 1009.7
23 14:55 SW 14 G 28 10.00 Fair CLR 95 54 25% 93 30.03 1010.3
23 13:55 S 18 G 26 10.00 Fair CLR 95 53.1 24% 93 30.04 1010.3
23 12:55 SE 10 G 23 10.00 Fair CLR 91.9 51.1 25% 89 30.06 1011.1
23 11:55 Vrbl 6 10.00 Fair CLR 90 50 25% 87 30.07 1011.5
23 10:55 Calm 10.00 Fair CLR 87.1 48 89.1 63 26% 84 30.08 1011.6
23 09:55 E 5 10.00 Fair CLR 82.9 44.1 25% 81 30.08 1012.0
23 08:55 Calm 10.00 Fair CLR 79 45 30% 79 30.1 1012.7
23 07:55 Calm 10.00 Fair CLR 75 45 34% 77 30.09 1012.5
23 06:55 S 5 10.00 Fair CLR 68 44.1 42% 30.09 1012.6
23 05:55 S 5 10.00 Fair CLR 64 44.1 48% 30.08 1012.4
23 04:55 SE 3 10.00 Fair CLR 64.9 44.1 82 64.9 47% 30.08 1012.0
23 03:55 SW 3 10.00 Fair CLR 66.9 43 42% 30.06 1011.4
23 02:55 Calm 10.00 Fair CLR 69.1 42.1 38% 30.06 1011.0
23 01:55 Calm 10.00 Fair CLR 75 42.1 31% 77 30.06 1010.7
23 00:55 S 8 10.00 Fair CLR 73.9 43 33% 30.06 1010.9
22 23:55 Vrbl 3 10.00 Fair CLR 78.1 43 29% 78 30.05 1010.8
22 22:55 W 5 10.00 Fair CLR 82 45 98.1 82 27% 80 30.05 1010.7
22 21:55 W 14 10.00 Fair CLR 82.9 46 27% 81 30.03 1010.4
22 20:55 W 20 G 32 10.00 Fair CLR 84.9 46.9 27% 82 30 1009.4
22 19:55 W 17 G 30 10.00 Fair CLR 89.1 48.9 25% 86 29.98 1008.7
22 18:55 W 23 G 31 10.00 Fair and Breezy CLR 91.9 52 26% 89 29.96 1008.2
22 17:55 W 21 G 33 10.00 A Few Clouds and Breezy FEW100 96.1 55 25% 94 29.95 1007.7
22 16:55 W 20 G 29 10.00 A Few Clouds FEW100 98.1 57 100.9 86 25% 97 29.96 1007.8
22 15:55 W 23 G 30 10.00 A Few Clouds and Breezy FEW100 99 57.9 26% 98 29.96 1007.8
22 14:55 W 13 G 21 10.00 A Few Clouds FEW100 99 59 27% 99 29.97 1008.2
22 13:55 Vrbl 5 10.00 A Few Clouds FEW100 97 55.9 25% 95 29.98 1008.3
22 12:55 Vrbl 6 10.00 Fair CLR 96.1 55 25% 94 29.99 1008.6
22 11:55 Calm 10.00 Fair CLR 90 50 25% 87 30.01 1009.5
22 10:55 Vrbl 3 10.00 Fair CLR 86 46 87.1 64 25% 83 30.02 1010.0
22 09:55 Calm 10.00 Fair CLR 81 42.1 25% 79 30.03 1010.5
22 08:55 Calm 10.00 Fair CLR 75 41 29% 77 30.04 1010.9
22 07:55 Calm 10.00 Fair CLR 72 42.1 34% 30.04 1010.9
22 06:55 Calm 10.00 Fair CLR 64.9 42.1 43% 30.04 1011.1
22 05:55 W 5 10.00 Fair CLR 64.9 41 42% 30.04 1010.9
22 04:55 Calm 10.00 Fair CLR 66 39.9 80.1 64 39% 30.03 1010.5
22 03:55 S 3 10.00 Fair CLR 64.9 41 42% 30.02 1010.5
22 02:55 S 3 10.00 Fair CLR 66.9 41 39% 30.02 1010.1
22 01:55 W 6 10.00 Fair CLR 72 39.9 31% 30.01 1009.7
22 00:55 W 5 10.00 Fair CLR 75 41 29% 77 30.01 1009.4
21 23:55 W 6 10.00 Fair CLR 77 42.1 29% 78 29.99 1009.1
21 22:55 NW 6 10.00 Fair CLR 80.1 41 93.9 80.1 25% 79 29.99 1008.9
21 21:55 W 7 10.00 Fair CLR 82.9 43 24% 81 29.98 1008.7
21 20:55 N 8 10.00 Fair CLR 86 46 25% 83 29.94 1007.5
Date Time (pdt) Wind (mph) Vis. (mi.) Weather Sky Cond. Air Dwpt Max. Min. Relative Humidity Wind Chill (°F) Heat Index (°F) altimeter (in) sea level (mb) 1 hr 3 hr 6 hr
6 hour
Temperature (ºF) Pressure Precipitation (in)